Printer-friendly version

IAU Minor Planet Center

Minor Planet Center

MPEC 2008-C79 : 2008 CG116

The following Minor Planet Electronic Circular may be linked-to from your own Web pages, but must not otherwise be redistributed electronically.


Read MPEC 2008-C78 Read MPEC 2008-C80


M.P.E.C. 2008-C79                                Issued 2008 Feb. 13, 15:43 UT

     The Minor Planet Electronic Circulars contain information on unusual
         minor planets and routine data on comets.  They are published
   on behalf of Commission 20 of the International Astronomical Union by the
          Minor Planet Center, Smithsonian Astrophysical Observatory,
                          Cambridge, MA 02138, U.S.A.

             Prepared using the Tamkin Foundation Computer Network

                              MPC@CFA.HARVARD.EDU
          URL http://www.cfa.harvard.edu/iau/mpc.html  ISSN 1523-6714

                                  2008 CG116

Observations:
     K08CB6G  C2008 02 08.28158 08 55 44.40 -12 38 20.0          18.3   EC079704
     K08CB6G  C2008 02 08.29321 08 56 00.66 -12 43 07.8          18.2   EC079704
     K08CB6G  C2008 02 08.30518 08 56 17.61 -12 48 06.8          18.1   EC079704
     K08CB6G  C2008 02 08.31681 08 56 34.40 -12 52 55.8          18.1   EC079704
     K08CB6G* C2008 02 09.26485 09 21 31.31 -19 19 43.2          17.9   EC079704
     K08CB6G  C2008 02 09.27366 09 21 44.53 -19 23 13.3          18.4   EC079704
     K08CB6G  C2008 02 09.27663 09 21 49.00 -19 24 24.7          18.8   EC079704
     K08CB6G  C2008 02 09.28603 09 22 03.05 -19 28 08.8          18.3   EC079704
     K08CB6G  C2008 02 09.28831 09 22 06.27 -19 29 01.1          19.0   EC079704
     K08CB6G  C2008 02 09.29836 09 22 21.50 -19 33 01.4          18.5   EC079704
     K08CB6G  C2008 02 09.30056 09 22 24.77 -19 33 53.9          18.4   EC079704
     K08CB6G  C2008 02 09.31068 09 22 40.00 -19 37 54.0          18.3   EC079704
     K08CB6G  C2008 02 09.31242 09 22 42.62 -19 38 35.6          18.1   EC079704
     K08CB6G  C2008 02 09.32341 09 22 59.08 -19 42 55.8          18.2   EC079704
     K08CB6G  C2008 02 10.02118 09 42 00.67 -24 09 45.0                 EC079J95
     K08CB6G  C2008 02 10.02598 09 42 08.20 -24 11 29.7                 EC079J95
     K08CB6G  C2008 02 10.02738 09 42 10.43 -24 12 01.3          18.4 R EC079J95
     K08CB6G  C2008 02 10.23097 09 47 57.82 -25 24 32.6          17.9 R EC079651
     K08CB6G  C2008 02 10.23161 09 47 58.71 -25 24 45.8          17.8 R EC079651
     K08CB6G  C2008 02 10.23222 09 47 59.72 -25 24 59.3          17.6 R EC079651
     K08CB6G  C2008 02 10.26699 09 48 52.32 -25 37 39.5          18.2   EC079704
     K08CB6G  C2008 02 10.26857 09 48 54.75 -25 38 14.0          18.0   EC079704
     K08CB6G  C2008 02 10.27932 09 49 11.42 -25 42 04.6          18.6   EC079704
     K08CB6G  C2008 02 10.28068 09 49 13.53 -25 42 33.9          18.4   EC079704
     K08CB6G  C2008 02 10.29151 09 49 30.27 -25 46 23.7          18.7   EC079704
     K08CB6G  C2008 02 10.29287 09 49 32.43 -25 46 53.1          18.2   EC079704
     K08CB6G  C2008 02 10.30380 09 49 49.21 -25 50 43.7          18.0   EC079704
     K08CB6G  C2008 02 10.30509 09 49 51.26 -25 51 11.9          18.2   EC079704
     K08CB6G  C2008 02 10.31613 09 50 08.31 -25 55 05.4          18.1   EC079704
     K08CB6G  C2008 02 10.31751 09 50 10.30 -25 55 33.9          18.8   EC079704
     K08CB6G 5C2008 02 10.33388 09 50 39.09 -26 01 20.0          18.5 R EC079673
     K08CB6G 5C2008 02 10.33935 09 50 47.63 -26 03 15.9                 EC079673
     K08CB6G 5C2008 02 10.34309 09 50 53.41 -26 04 35.0                 EC079673
     K08CB6G 5C2008 02 10.34892 09 51 02.37 -26 06 36.3                 EC079673
     K08CB6G  C2008 02 10.63353 09 58 51.732-27 39 27.68         18.2 R EC079E12
     K08CB6G  C2008 02 10.63663 09 58 56.521-27 40 29.77         18.4 R EC079E12
     K08CB6G  C2008 02 10.97613 10 08 24.20 -29 35 42.3          19.0 R EC079113
     K08CB6G  C2008 02 10.97658 10 08 24.88 -29 35 50.4          18.0 R EC079113
     K08CB6G  C2008 02 10.97703 10 08 25.55 -29 35 59.1          17.6 R EC079113
     K08CB6G  C2008 02 10.97748 10 08 26.24 -29 36 07.4          18.5 R EC079113
     K08CB6G  C2008 02 10.97793 10 08 26.84 -29 36 16.5          19.1 R EC079113
     K08CB6G  C2008 02 10.99038 10 08 46.12 -29 40 10.1                 EC079246
     K08CB6G  C2008 02 10.99064 10 08 46.52 -29 40 14.4                 EC079246
     K08CB6G  C2008 02 11.26730 10 16 31.20 -31 04 18.4          19.2   EC079704
     K08CB6G  C2008 02 11.27953 10 16 50.15 -31 07 59.6          19.2   EC079704
     K08CB6G  C2008 02 11.29179 10 17 09.00 -31 11 40.6          19.1   EC079704
     K08CB6G  C2008 02 11.30419 10 17 28.13 -31 15 22.7          18.8   EC079704
     K08CB6G 5C2008 02 11.30988 10 17 40.29 -31 17 00.5          18.4 R EC079673
     K08CB6G  C2008 02 11.31646 10 17 46.95 -31 19 01.2          19.5   EC079704
     K08CB6G 5C2008 02 11.31697 10 17 51.15 -31 19 07.2                 EC079673
     K08CB6G 5C2008 02 11.32361 10 18 01.44 -31 21 06.1                 EC079673
     K08CB6G 5C2008 02 11.32763 10 18 07.62 -31 22 18.0                 EC079673
     K08CB6G  C2008 02 12.43999 10 48 18.35 -36 07 15.9          18.4 R EC079474
     K08CB6G  C2008 02 12.44068 10 48 19.37 -36 07 25.8          18.2 R EC079474
     K08CB6G  C2008 02 12.44138 10 48 20.45 -36 07 35.8          19.0 R EC079474
     K08CB6G  C2008 02 12.53609 10 50 42.71 -36 29 36.5          17.9 R EC079474
     K08CB6G  C2008 02 12.53678 10 50 43.73 -36 29 45.9          18.0 R EC079474
     K08CB6G  C2008 02 12.53725 10 50 44.40 -36 29 52.0          18.6 R EC079474
     K08CB6G  C2008 02 12.53781 10 50 45.25 -36 30 00.0          17.8 R EC079474
     K08CB6G  C2008 02 12.53840 10 50 46.11 -36 30 07.7          18.1 R EC079474
     K08CB6G  C2008 02 12.53898 10 50 46.96 -36 30 16.1          19.0 R EC079474
     K08CB6G  C2008 02 12.53956 10 50 47.85 -36 30 23.8          17.8 R EC079474

Observer details:
113 Volkssternwarte Drebach, Schoenbrunn.  Observers G. Lehmann, J. Kandler.
    0.5-m f/5 reflector + CCD.
246 Klet Observatory-KLENOT.  Observers M. Tichy, J. Ticha.  Measurer M. Tichy.
    1.06-m KLENOT Telescope + CCD.
474 Mount John Observatory, Lake Tekapo.  Observer A. C. Gilmore.  1.0-m f/7.7
    reflector + CCD.
651 Grasslands Observatory, Tucson.  Observer J. E. McGaha.  0.62-m f/5.1
    Newtonian reflector + CCD.
673 Table Mountain Observatory, Wrightwood.  Observer J. Young.  0.61-m f/16
    Cassegrain + CCD.
704 Lincoln Laboratory ETS, New Mexico.  Observers M. Bezpalko, D. Torres,
    R. Kracke, G. Spitz, J. Kistler.  Measurers J. Stuart, S. Scruggs.  1.0-m
    f/2.15 reflector + CCD.
E12 Siding Spring Survey.  Observer R. H. McNaught.  0.5-m Uppsala Schmidt
    + CCD.
J95 Great Shefford.  Observer P. Birtwhistle.  0.40-m f/6.0 Schmidt-Cassegrain
    + CCD.

Orbital elements:
2008 CG116                                               Earth MOID = 0.0296 AU
Epoch 2007 Oct. 27.0 TT = JDT 2454400.5                 MPC
M 331.68942              (2000.0)            P               Q
n   0.25468421     Peri.  196.93906     -0.84030463     -0.53756543
a   2.4649117      Node   310.33278     +0.50742761     -0.73443837
e   0.5912019      Incl.    5.27497     +0.19080184     -0.41427490
P   3.87           H   24.2           G   0.15           U   6
Residuals in seconds of arc
080208 704 (3.8+  0.4-)   080210 704  0.6-  0.9-    080210 246  0.6-  0.2+
080208 704  0.6+  1.5+    080210 704  0.0   1.4-    080211 704  0.2+  0.7-
080208 704  0.1+  0.3+    080210 704  0.1+  1.6-    080211 704  0.7+  0.4-
080208 704 (4.0+  0.4+)   080210 704  0.2+  0.5-    080211 704  0.2-  0.5-
080209 704  0.5+  0.2-    080210 704  1.0+  0.9-    080211 704  0.2+  0.4-
080209 704  0.4+  0.3+    080210 704  0.3-  0.6+    080211 673  1.2+  1.2-
080209 704  0.5+  0.2-    080210 704  0.5+  0.3-    080211 704  0.5-  0.2-
080209 704  0.3-  0.1-    080210 704  0.6+  0.3-    080211 673  0.1+  0.7-
080209 704 (3.1-  1.9+)   080210 704  1.2-  0.4+    080211 673  0.8+  0.9-
080209 704  1.1-  0.6+    080210 673  0.6-  0.1+    080211 673  0.6+  1.1-
080209 704  1.5-  0.3+    080210 673  0.6+  0.4-    080212 474  0.5+  0.9+
080209 704  1.0-  0.3+    080210 673  0.6+  0.8-    080212 474  0.1+  0.8+
080209 704  0.9-  0.1-    080210 673  0.0   0.5+    080212 474  0.3+  0.8+
080209 704  1.7-  0.3-    080210 E12  0.3-  0.7+    080212 474  0.1-  0.8+
080210 J95  0.9-  0.0     080210 E12  0.3-  0.6+    080212 474  0.2-  0.8+
080210 J95  0.6-  0.7+    080210 113  1.8+  0.5-    080212 474  0.5-  1.1+
080210 J95  0.1-  0.2-    080210 113  1.4+  0.1-    080212 474  0.3-  0.7+
080210 651  1.4+  0.9-    080210 113  0.9+  0.2-    080212 474  0.5-  1.0+
080210 651  0.1-  0.1-    080210 113  0.7+  0.0     080212 474  0.7-  0.5+
080210 651  0.7+  0.4-    080210 113  0.7-  0.6-    080212 474  0.3-  0.7+
080210 704  0.4-  0.3-    080210 246  0.5-  0.4-

Ephemeris:
2008 CG116               a,e,i = 2.46, 0.59, 5                   q = 1.0077
Date    TT    R. A. (2000) Decl.     Delta      r     Elong.  Phase     V
2008 02 14    11 27.29   -41 00.8    0.0384   1.008   120.9    57.2    19.2
2008 02 16    12 10.31   -44 45.9    0.0451   1.008   114.9    62.7    19.7
2008 02 18    12 44.68   -46 45.1    0.0525   1.008   111.1    66.2    20.2
2008 02 20    13 11.53   -47 45.1    0.0604   1.010   108.7    68.1    20.5
2008 02 22    13 32.44   -48 12.6    0.0685   1.011   107.3    69.0    20.8
2008 02 24    13 48.84   -48 22.3    0.0768   1.014   106.7    69.2    21.1
2008 02 26    14 01.81   -48 22.0    0.0851   1.017   106.6    68.8    21.3
2008 02 28    14 12.17   -48 15.9    0.0935   1.021   106.9    68.1    21.5
2008 03 01    14 20.50   -48 06.3    0.102    1.026   107.5    67.1    21.7
2008 03 03    14 27.21   -47 54.5    0.110    1.031   108.3    65.8    21.8
2008 03 05    14 32.61   -47 41.2    0.118    1.037   109.4    64.4    21.9
2008 03 07    14 36.93   -47 26.7    0.127    1.044   110.6    62.9    22.0
2008 03 09    14 40.35   -47 11.2    0.135    1.051   111.9    61.2    22.1
2008 03 11    14 43.00   -46 54.8    0.143    1.058   113.4    59.5    22.2
2008 03 13    14 44.99   -46 37.4    0.151    1.067   115.0    57.6    22.3
2008 03 15    14 46.41   -46 19.1    0.159    1.075   116.6    55.8    22.4

Gareth V. Williams           (C) Copyright 2008 MPC           M.P.E.C. 2008-C79

Read MPEC 2008-C78 Read MPEC 2008-C80


Our Web policy. Index to the CBAT/MPC/ICQ pages.


Valid HTML 4.01!